Tracking 19219 objects as of 21-Jul-2018
HD Live streaming from Space Station
objects crossing your sky now

FENGYUN 1C DEB

Track FENGYUN 1C DEB now!
10-day predictions


NORAD ID: 29781
Int'l Code: 1999-025BX
Perigee: 842.0 km
Apogee: 955.2 km
Inclination: 99.0 °
Period: 102.8 minutes
Semi major axis: 7269 km
RCS: 0.0131 m2 (small)
Launch date: May 10, 1999
Source: People's Republic of China (PRC)
Launch site: Taiyaun Space Center, China (TSC)

Note: This is SATELLITE DEBRIS
aabbcc
Your satellite tracking list
Your tracking list is empty




NASA's NSSDC Master Catalog

Two Line Element Set (TLE):
1 29781U 99025BX  18201.92333726 +.00000268 +00000-0 +20374-3 0  9994
2 29781 099.0204 236.5834 0077827 136.7591 345.1541 14.00681298587896
Source of the keplerian elements: AFSPC